Location: ???? ???? ?????
(31.2680°N, 31.7283°E)
Time: 08:26:37
(UTC+00:00)

ERS-1 Rocket - Pass Details

Date: 13 July 2020
Orbit: 752 x 758 km, 98.5° (Epoch: 07 August)

Event Time Altitude Azimuth Distance (km) Brightness Sun altitude
Exits shadow 18:56:30 29° 78° (ENE) 1,375 4.0 -21.3°
Maximum altitude 18:56:51 29° 71° (ENE) 1,367 4.0 -21.4°
Drops below altitude 10° 19:01:08 10° 12° (NNE) 2,289 5.9 -22.0°
Sets 19:03:41 0° 2° (N) 3,216 6.9 -22.4°
